,,,PA_Meas_PMT16A,,PR_Meas_QMR101_102,,RH_Meas_QMH101,,SR_Meas_QMS101,,TA_Meas_QMH101,,GenWind,,GenWind,
date,time,status,PA,status,PR,status,RH,status,SR,status,TA,status,DirAvg,status,SpdAvg,
2010-10-04, 00:00:04,VALID,1006.74,VALID,0,VALID,103.054,VALID,0,VALID,24.493,VALID,300,VALID,0,
2010-10-04, 00:01:04,VALID,1006.71,VALID,0,VALID,103.062,VALID,0,VALID,24.493,VALID,300,VALID,0,
2010-10-04, 00:02:04,VALID,1006.71,VALID,0,VALID,103.07,VALID,0,VALID,24.493,VALID,300,VALID,0,
2010-10-04, 00:03:04,VALID,1006.72,VALID,0,VALID,103.093,VALID,0,VALID,24.493,VALID,300,VALID,0,
2010-10-04, 00:04:04,VALID,1006.71,VALID,0,VALID,103.077,VALID,0,VALID,24.493,VALID,300,VALID,0,
2010-10-04, 00:05:04,VALID,1006.7,VALID,0,VALID,103.07,VALID,0,VALID,24.4735,VALID,300,VALID,0,
2010-10-04, 00:06:04,VALID,1006.66,VALID,0,VALID,103.077,VALID,0,VALID,24.4735,VALID,300,VALID,0,
2010-10-04, 00:07:04,VALID,1006.63,VALID,0,VALID,103.07,VALID,0,VALID,24.454,VALID,300,VALID,0,
2010-10-04, 00:08:04,VALID,1006.61,VALID,0,VALID,103.108,VALID,0,VALID,24.415,VALID,300,VALID,0,
2010-10-04, 00:09:04,VALID,1006.58,VALID,0,VALID,103.131,VALID,0,VALID,24.3956,VALID,300,VALID,0,
2010-10-04, 00:10:04,VALID,1006.6,VALID,0,VALID,103.115,VALID,0,VALID,24.3547,VALID,300,VALID,0,
2010-10-04, 00:11:04,VALID,1006.59,VALID,0,VALID,103.123,VALID,0,VALID,24.3761,VALID,300,VALID,0,
2010-10-04, 00:12:04,VALID,1006.57,VALID,0,VALID,103.108,VALID,0,VALID,24.3547,VALID,300,VALID,0,
2010-10-04, 00:13:04,VALID,1006.6,VALID,0,VALID,103.093,VALID,0.105969,VALID,24.3566,VALID,300,VALID,0,
2010-10-04, 00:14:04,VALID,1006.54,VALID,0,VALID,103.115,VALID,0,VALID,24.3371,VALID,300,VALID,0,
2010-10-04, 00:15:04,VALID,1006.52,VALID,0,VALID,103.131,VALID,0.105969,VALID,24.3176,VALID,300,VALID,0,
2010-10-04, 00:16:04,VALID,1006.48,VALID,0,VALID,103.115,VALID,0,VALID,24.2963,VALID,300,VALID,0,
2010-10-04, 00:17:04,VALID,1006.46,VALID,0,VALID,103.146,VALID,0.105969,VALID,24.2981,VALID,300,VALID,0,
2010-10-04, 00:18:04,VALID,1006.46,VALID,0,VALID,103.161,VALID,0,VALID,24.2786,VALID,300,VALID,0,
2010-10-04, 00:19:04,VALID,1006.46,VALID,0,VALID,103.146,VALID,0,VALID,24.2981,VALID,300,VALID,0,
2010-10-04, 00:20:04,VALID,1006.46,VALID,0,VALID,103.1,VALID,0,VALID,24.2981,VALID,300,VALID,0,
2010-10-04, 00:21:04,VALID,1006.46,VALID,0,VALID,103.1,VALID,0,VALID,24.2981,VALID,300,VALID,0,
2010-10-04, 00:22:04,VALID,1006.48,VALID,0,VALID,103.115,VALID,0.105969,VALID,24.2963,VALID,300,VALID,0,
2010-10-04, 00:23:04,VALID,1006.48,VALID,0,VALID,103.108,VALID,0.105969,VALID,24.2749,VALID,300,VALID,0,
2010-10-04, 00:24:04,VALID,1006.49,VALID,0,VALID,103.093,VALID,0.105969,VALID,24.2963,VALID,300,VALID,0,
2010-10-04, 00:25:04,VALID,1006.52,VALID,0,VALID,103.093,VALID,0.105969,VALID,24.2963,VALID,300,VALID,0,
2010-10-04, 00:26:04,VALID,1006.52,VALID,0,VALID,103.1,VALID,0.105969,VALID,24.2768,VALID,300,VALID,0,
2010-10-04, 00:27:04,VALID,1006.5,VALID,0,VALID,103.108,VALID,0.105969,VALID,24.2768,VALID,300,VALID,0,
2010-10-04, 00:28:04,VALID,1006.5,VALID,0,VALID,103.1,VALID,0.105969,VALID,24.2768,VALID,300,VALID,0,
2010-10-04, 00:29:04,VALID,1006.49,VALID,0,VALID,103.108,VALID,0.105969,VALID,24.2768,VALID,300,VALID,0,
2010-10-04, 00:30:04,VALID,1006.49,VALID,0,VALID,103.108,VALID,0.105969,VALID,24.2768,VALID,300,VALID,0,
2010-10-04, 00:31:04,VALID,1006.46,VALID,0,VALID,103.07,VALID,0.105969,VALID,24.2573,VALID,300,VALID,0,
2010-10-04, 00:32:04,VALID,1006.46,VALID,0,VALID,103.085,VALID,0.105969,VALID,24.2573,VALID,300,VALID,0,
2010-10-04, 00:33:04,VALID,1006.44,VALID,0,VALID,103.1,VALID,0.105969,VALID,24.2573,VALID,300,VALID,0,
2010-10-04, 00:34:04,VALID,1006.45,VALID,0,VALID,103.1,VALID,0.105969,VALID,24.2165,VALID,300,VALID,0,
2010-10-04, 00:35:04,VALID,1006.43,VALID,0,VALID,103.108,VALID,0.105969,VALID,24.2573,VALID,300,VALID,0,
2010-10-04, 00:36:04,VALID,1006.42,VALID,0,VALID,103.1,VALID,0.211938,VALID,24.2573,VALID,300,VALID,0,
2010-10-04, 00:37:04,VALID,1006.42,VALID,0,VALID,103.093,VALID,0,VALID,24.2183,VALID,300,VALID,0,
2010-10-04, 00:38:04,VALID,1006.44,VALID,0,VALID,103.07,VALID,0,VALID,24.2396,VALID,300,VALID,0,
2010-10-04, 00:39:04,VALID,1006.41,VALID,0,VALID,103.047,VALID,0,VALID,24.2805,VALID,300,VALID,0,
2010-10-04, 00:40:04,VALID,1006.42,VALID,0,VALID,103.054,VALID,0,VALID,24.2591,VALID,300,VALID,0,
2010-10-04, 00:41:04,VALID,1006.41,VALID,0,VALID,103.047,VALID,0,VALID,24.2786,VALID,300,VALID,0,
2010-10-04, 00:42:04,VALID,1006.39,VALID,0,VALID,103.024,VALID,0,VALID,24.2786,VALID,300,VALID,0,
2010-10-04, 00:43:04,VALID,1006.36,VALID,0,VALID,103.016,VALID,0,VALID,24.2786,VALID,300,VALID,0,
2010-10-04, 00:44:04,VALID,1006.37,VALID,0,VALID,102.993,VALID,0,VALID,24.2981,VALID,300,VALID,0,
2010-10-04, 00:45:04,VALID,1006.37,VALID,0,VALID,102.993,VALID,0,VALID,24.2981,VALID,300,VALID,0,
2010-10-04, 00:46:04,VALID,1006.35,VALID,0,VALID,102.993,VALID,0,VALID,24.2786,VALID,300,VALID,0,
2010-10-04, 00:47:04,VALID,1006.31,VALID,0,VALID,102.993,VALID,0,VALID,24.2981,VALID,300,VALID,0,
2010-10-04, 00:48:04,VALID,1006.29,VALID,0,VALID,102.971,VALID,0,VALID,24.2981,VALID,300,VALID,0,
2010-10-04, 00:49:04,VALID,1006.25,VALID,0,VALID,102.948,VALID,0,VALID,24.3176,VALID,300,VALID,0,
2010-10-04, 00:50:04,VALID,1006.23,VALID,0,VALID,102.932,VALID,0,VALID,24.3176,VALID,300,VALID,0.0878906,
2010-10-04, 00:51:04,VALID,1006.19,VALID,0,VALID,102.963,VALID,0,VALID,24.3176,VALID,300,VALID,0.232031,
2010-10-04, 00:52:04,VALID,1006.16,VALID,0,VALID,102.948,VALID,0,VALID,24.2981,VALID,300,VALID,0.315625,
2010-10-04, 00:53:04,VALID,1006.18,VALID,0,VALID,102.948,VALID,0,VALID,24.3176,VALID,300,VALID,0.241406,
2010-10-04, 00:54:04,VALID,1006.16,VALID,0,VALID,102.963,VALID,0,VALID,24.2786,VALID,300,VALID,0,
2010-10-04, 00:55:04,VALID,1006.16,VALID,0,VALID,102.993,VALID,0,VALID,24.2786,VALID,300,VALID,0,
2010-10-04, 00:56:04,VALID,1006.16,VALID,0,VALID,102.993,VALID,0,VALID,24.2591,VALID,300,VALID,0,
2010-10-04, 00:57:04,VALID,1006.17,VALID,0,VALID,103.016,VALID,0,VALID,24.2202,VALID,300,VALID,0,
2010-10-04, 00:58:04,VALID,1006.18,VALID,0,VALID,103.024,VALID,0,VALID,24.2007,VALID,300,VALID,0,
2010-10-04, 00:59:04,VALID,1006.19,VALID,0,VALID,103.001,VALID,0,VALID,24.2007,VALID,300,VALID,0,
2010-10-04, 01:00:04,VALID,1006.21,VALID,0,VALID,103.001,VALID,0,VALID,24.2007,VALID,300,VALID,0,
2010-10-04, 01:01:04,VALID,1006.2,VALID,0,VALID,102.986,VALID,0,VALID,24.2007,VALID,300,VALID,0,
2010-10-04, 01:02:04,VALID,1006.22,VALID,0,VALID,102.963,VALID,0,VALID,24.2007,VALID,300,VALID,0,
2010-10-04, 01:03:04,VALID,1006.22,VALID,0,VALID,102.986,VALID,0,VALID,24.1812,VALID,223,VALID,0.528125,
2010-10-04, 01:04:04,VALID,1006.23,VALID,0,VALID,102.978,VALID,0,VALID,24.1812,VALID,223,VALID,0.317969,
2010-10-04, 01:05:04,VALID,1006.22,VALID,0,VALID,102.971,VALID,0,VALID,24.1617,VALID,223,VALID,0.198828,
2010-10-04, 01:06:04,VALID,1006.22,VALID,0,VALID,102.94,VALID,0,VALID,24.2007,VALID,200,VALID,0.558203,
2010-10-04, 01:07:04,VALID,1006.21,VALID,0,VALID,102.894,VALID,0,VALID,24.2202,VALID,200,VALID,0.0046875,
2010-10-04, 01:08:04,VALID,1006.18,VALID,0,VALID,102.887,VALID,0,VALID,24.2202,VALID,200,VALID,0,
2010-10-04, 01:09:04,VALID,1006.15,VALID,0,VALID,102.902,VALID,0,VALID,24.2202,VALID,200,VALID,0,
2010-10-04, 01:10:04,VALID,1006.16,VALID,0,VALID,102.902,VALID,0,VALID,24.2183,VALID,200,VALID,0,
2010-10-04, 01:11:04,VALID,1006.1,VALID,0,VALID,102.917,VALID,0,VALID,24.2202,VALID,200,VALID,0,
2010-10-04, 01:12:04,VALID,1006.09,VALID,0,VALID,102.902,VALID,0,VALID,24.2396,VALID,200,VALID,0,
2010-10-04, 01:13:04,VALID,1006.08,VALID,0,VALID,102.902,VALID,0,VALID,24.2396,VALID,200,VALID,0,
2010-10-04, 01:14:04,VALID,1006.05,VALID,0,VALID,102.894,VALID,0,VALID,24.2396,VALID,200,VALID,0,
2010-10-04, 01:15:04,VALID,1006.06,VALID,0,VALID,102.91,VALID,0,VALID,24.2396,VALID,200,VALID,0.268359,
2010-10-04, 01:16:04,VALID,1006.04,VALID,0,VALID,102.887,VALID,0,VALID,24.2591,VALID,200,VALID,0,
2010-10-04, 01:17:04,VALID,1006.05,VALID,0,VALID,102.879,VALID,0,VALID,24.2378,VALID,200,VALID,0,
2010-10-04, 01:18:04,VALID,1006.01,VALID,0,VALID,102.894,VALID,0,VALID,24.2396,VALID,200,VALID,0,
2010-10-04, 01:19:04,VALID,1006.04,VALID,0,VALID,102.902,VALID,0,VALID,24.2396,VALID,200,VALID,0,
2010-10-04, 01:20:04,VALID,1006.03,VALID,0,VALID,102.879,VALID,0,VALID,24.2591,VALID,200,VALID,0,
2010-10-04, 01:21:04,VALID,1006.05,VALID,0,VALID,102.849,VALID,0,VALID,24.2805,VALID,200,VALID,0,
2010-10-04, 01:22:04,VALID,1006.02,VALID,0,VALID,102.833,VALID,0,VALID,24.2981,VALID,200,VALID,0.248828,
2010-10-04, 01:23:04,VALID,1006,VALID,0,VALID,102.788,VALID,0,VALID,24.3371,VALID,127,VALID,0.453125,
2010-10-04, 01:24:04,VALID,1006.03,VALID,0,VALID,102.788,VALID,0,VALID,24.3566,VALID,127,VALID,0.507422,
2010-10-04, 01:25:04,VALID,1006.02,VALID,0,VALID,102.81,VALID,0,VALID,24.3566,VALID,127,VALID,0.201562,
2010-10-04, 01:26:04,VALID,1006.07,VALID,0,VALID,102.864,VALID,0,VALID,24.3371,VALID,104,VALID,0.286328,
2010-10-04, 01:27:04,VALID,1006.11,VALID,0,VALID,102.749,VALID,0,VALID,24.3956,VALID,4,VALID,0.765625,
2010-10-04, 01:28:04,VALID,1006.11,VALID,0,VALID,102.788,VALID,0,VALID,24.415,VALID,347,VALID,0.517578,
2010-10-04, 01:29:04,VALID,1006.09,VALID,0,VALID,102.772,VALID,0,VALID,24.4345,VALID,347,VALID,0,
2010-10-04, 01:30:04,VALID,1006.05,VALID,0,VALID,102.757,VALID,0,VALID,24.4735,VALID,347,VALID,0.00429688,
2010-10-04, 01:31:04,VALID,1006.07,VALID,0,VALID,102.727,VALID,0,VALID,24.5338,VALID,347,VALID,0,
2010-10-04, 01:32:04,VALID,1006.04,VALID,0,VALID,102.765,VALID,0,VALID,24.493,VALID,347,VALID,0,
2010-10-04, 01:33:04,VALID,1006.05,VALID,0,VALID,102.879,VALID,0,VALID,24.4559,VALID,347,VALID,0,
2010-10-04, 01:34:04,VALID,1006.08,VALID,0,VALID,102.932,VALID,0,VALID,24.3956,VALID,347,VALID,0,
2010-10-04, 01:35:04,VALID,1006.1,VALID,0,VALID,102.917,VALID,0,VALID,24.3974,VALID,347,VALID,0,
2010-10-04, 01:36:04,VALID,1006.08,VALID,0,VALID,102.917,VALID,0,VALID,24.3761,VALID,347,VALID,0,
2010-10-04, 01:37:04,VALID,1006.08,VALID,0,VALID,102.91,VALID,0,VALID,24.3566,VALID,347,VALID,0,
2010-10-04, 01:38:04,VALID,1006.09,VALID,0,VALID,102.887,VALID,0,VALID,24.3761,VALID,347,VALID,0,
2010-10-04, 01:39:04,VALID,1006.05,VALID,0,VALID,102.879,VALID,0,VALID,24.3761,VALID,347,VALID,0,
2010-10-04, 01:40:04,VALID,1006.08,VALID,0,VALID,102.902,VALID,0,VALID,24.3761,VALID,347,VALID,0,
2010-10-04, 01:41:04,VALID,1006.07,VALID,0,VALID,102.917,VALID,0,VALID,24.3566,VALID,347,VALID,0,
2010-10-04, 01:42:04,VALID,1006.08,VALID,0,VALID,102.932,VALID,0,VALID,24.3371,VALID,347,VALID,0,
2010-10-04, 01:43:04,VALID,1006.09,VALID,0,VALID,102.963,VALID,0,VALID,24.3176,VALID,347,VALID,0,
2010-10-04, 01:44:04,VALID,1006.07,VALID,0,VALID,102.978,VALID,0,VALID,24.3176,VALID,347,VALID,0,
2010-10-04, 01:45:04,VALID,1006.06,VALID,0,VALID,103.001,VALID,0,VALID,24.2981,VALID,347,VALID,0,
2010-10-04, 01:46:04,VALID,1006.05,VALID,0,VALID,102.978,VALID,0,VALID,24.3176,VALID,347,VALID,0,
2010-10-04, 01:47:04,VALID,1006.07,VALID,0,VALID,102.955,VALID,0,VALID,24.3176,VALID,347,VALID,0,
2010-10-04, 01:48:04,VALID,1006.06,VALID,0,VALID,102.925,VALID,0,VALID,24.3371,VALID,347,VALID,0,
2010-10-04, 01:49:04,VALID,1006.05,VALID,0,VALID,102.917,VALID,0,VALID,24.3371,VALID,347,VALID,0,
2010-10-04, 01:50:04,VALID,1006.07,VALID,0,VALID,102.91,VALID,0,VALID,24.3371,VALID,347,VALID,0,
2010-10-04, 01:51:04,VALID,1006.07,VALID,0,VALID,102.948,VALID,0.105969,VALID,24.3371,VALID,347,VALID,0,
2010-10-04, 01:52:04,VALID,1006.09,VALID,0,VALID,102.94,VALID,0,VALID,24.3158,VALID,347,VALID,0,
2010-10-04, 01:53:04,VALID,1006.08,VALID,0,VALID,102.94,VALID,0.105969,VALID,24.3371,VALID,347,VALID,0,
2010-10-04, 01:54:04,VALID,1006.12,VALID,0,VALID,102.948,VALID,0,VALID,24.3371,VALID,347,VALID,0,
2010-10-04, 01:55:04,VALID,1006.12,VALID,0,VALID,102.94,VALID,0,VALID,24.3371,VALID,347,VALID,0,
2010-10-04, 01:56:04,VALID,1006.13,VALID,0,VALID,102.925,VALID,0,VALID,24.3158,VALID,347,VALID,0,
2010-10-04, 01:57:04,VALID,1006.16,VALID,0,VALID,102.94,VALID,0,VALID,24.3371,VALID,347,VALID,0,
2010-10-04, 01:58:04,VALID,1006.14,VALID,0,VALID,102.955,VALID,0,VALID,24.3176,VALID,347,VALID,0,
2010-10-04, 01:59:04,VALID,1006.11,VALID,0,VALID,102.978,VALID,0.105969,VALID,24.2768,VALID,347,VALID,0,
2010-10-04, 02:00:04,VALID,1006.11,VALID,0,VALID,102.948,VALID,0,VALID,24.2768,VALID,347,VALID,0,
2010-10-04, 02:01:04,VALID,1006.1,VALID,0,VALID,102.925,VALID,0,VALID,24.2981,VALID,347,VALID,0,
2010-10-04, 02:02:04,VALID,1006.06,VALID,0,VALID,102.894,VALID,0.105969,VALID,24.3176,VALID,347,VALID,0,
2010-10-04, 02:03:04,VALID,1006.07,VALID,0,VALID,102.902,VALID,0,VALID,24.3158,VALID,347,VALID,0,
2010-10-04, 02:04:04,VALID,1006.07,VALID,0,VALID,102.887,VALID,0,VALID,24.3371,VALID,347,VALID,0,
2010-10-04, 02:05:04,VALID,1006.04,VALID,0,VALID,102.902,VALID,0.105969,VALID,24.3371,VALID,347,VALID,0,
2010-10-04, 02:06:04,VALID,1006.03,VALID,0,VALID,102.925,VALID,0,VALID,24.3371,VALID,347,VALID,0,
2010-10-04, 02:07:04,VALID,1006.02,VALID,0,VALID,102.902,VALID,0,VALID,24.3158,VALID,347,VALID,0,
2010-10-04, 02:08:04,VALID,1006.02,VALID,0,VALID,102.932,VALID,0,VALID,24.3176,VALID,347,VALID,0,
2010-10-04, 02:09:04,VALID,1006,VALID,0,VALID,102.955,VALID,0.105969,VALID,24.2981,VALID,347,VALID,0,
2010-10-04, 02:10:04,VALID,1005.97,VALID,0,VALID,102.963,VALID,0.105969,VALID,24.2786,VALID,347,VALID,0,
2010-10-04, 02:11:04,VALID,1005.99,VALID,0,VALID,102.971,VALID,0,VALID,24.2378,VALID,347,VALID,0,
2010-10-04, 02:12:04,VALID,1005.96,VALID,0,VALID,102.978,VALID,0,VALID,24.2396,VALID,347,VALID,0,
2010-10-04, 02:13:04,VALID,1005.95,VALID,0,VALID,102.971,VALID,0,VALID,24.2396,VALID,347,VALID,0,
2010-10-04, 02:14:04,VALID,1005.99,VALID,0,VALID,102.986,VALID,0,VALID,24.2202,VALID,347,VALID,0,
2010-10-04, 02:15:04,VALID,1005.97,VALID,0,VALID,102.986,VALID,0,VALID,24.2202,VALID,347,VALID,0,
2010-10-04, 02:16:04,VALID,1006.01,VALID,0,VALID,102.971,VALID,0.105969,VALID,24.2007,VALID,347,VALID,0,
2010-10-04, 02:17:04,VALID,1006.04,VALID,0,VALID,103.001,VALID,0,VALID,24.2007,VALID,347,VALID,0,
2010-10-04, 02:18:04,VALID,1006.02,VALID,0,VALID,102.971,VALID,0.105969,VALID,24.1599,VALID,347,VALID,0,
2010-10-04, 02:19:04,VALID,1006.05,VALID,0,VALID,102.978,VALID,0.105969,VALID,24.1599,VALID,347,VALID,0,
2010-10-04, 02:20:04,VALID,1006.01,VALID,0,VALID,102.963,VALID,0,VALID,24.1599,VALID,347,VALID,0,
2010-10-04, 02:21:04,VALID,1006.04,VALID,0,VALID,102.986,VALID,0.105969,VALID,24.1404,VALID,347,VALID,0,
2010-10-04, 02:22:04,VALID,1006,VALID,0,VALID,102.971,VALID,0,VALID,24.1617,VALID,347,VALID,0,
2010-10-04, 02:23:04,VALID,1006.01,VALID,0,VALID,102.955,VALID,0,VALID,24.1617,VALID,347,VALID,0,
2010-10-04, 02:24:04,VALID,1006.02,VALID,0,VALID,102.94,VALID,0.105969,VALID,24.1812,VALID,347,VALID,0,
2010-10-04, 02:25:04,VALID,1006.01,VALID,0,VALID,102.917,VALID,0.105969,VALID,24.2007,VALID,348,VALID,0,
2010-10-04, 02:26:04,VALID,1006.01,VALID,0,VALID,102.864,VALID,0,VALID,24.2396,VALID,348,VALID,0,
2010-10-04, 02:27:04,VALID,1006.03,VALID,0,VALID,102.849,VALID,0,VALID,24.2591,VALID,348,VALID,0,
2010-10-04, 02:28:04,VALID,1006.03,VALID,0,VALID,102.849,VALID,0,VALID,24.2591,VALID,348,VALID,0,
2010-10-04, 02:29:04,VALID,1006.02,VALID,0,VALID,102.925,VALID,0,VALID,24.2396,VALID,348,VALID,0,
2010-10-04, 02:30:04,VALID,1006.02,VALID,0,VALID,102.925,VALID,0,VALID,24.2396,VALID,348,VALID,0,
2010-10-04, 02:31:04,VALID,1006.04,VALID,0,VALID,102.902,VALID,0,VALID,24.2396,VALID,348,VALID,0,
2010-10-04, 02:32:04,VALID,1006.04,VALID,0,VALID,102.932,VALID,0,VALID,24.2396,VALID,348,VALID,0,
2010-10-04, 02:33:04,VALID,1006.06,VALID,0,VALID,102.917,VALID,0.105969,VALID,24.2396,VALID,348,VALID,0,
2010-10-04, 02:34:04,VALID,1006.07,VALID,0,VALID,102.917,VALID,0.105969,VALID,24.2396,VALID,348,VALID,0,
2010-10-04, 02:35:04,VALID,1006.06,VALID,0,VALID,102.887,VALID,0,VALID,24.2378,VALID,348,VALID,0,
2010-10-04, 02:36:04,VALID,1006.08,VALID,0,VALID,102.864,VALID,0,VALID,24.2591,VALID,348,VALID,0,
2010-10-04, 02:37:04,VALID,1006.08,VALID,0,VALID,102.871,VALID,0,VALID,24.2805,VALID,348,VALID,0,
2010-10-04, 02:38:04,VALID,1006.08,VALID,0,VALID,102.864,VALID,0,VALID,24.2786,VALID,348,VALID,0,
2010-10-04, 02:39:04,VALID,1006.06,VALID,0,VALID,102.81,VALID,0.105969,VALID,24.2963,VALID,348,VALID,0,
2010-10-04, 02:40:04,VALID,1006.06,VALID,0,VALID,102.818,VALID,0,VALID,24.3371,VALID,348,VALID,0,
2010-10-04, 02:41:04,VALID,1006.1,VALID,0,VALID,102.81,VALID,0,VALID,24.3566,VALID,93,VALID,0.643359,
2010-10-04, 02:42:04,VALID,1006.13,VALID,0,VALID,102.795,VALID,0,VALID,24.3761,VALID,93,VALID,0.352734,
2010-10-04, 02:43:04,VALID,1006.13,VALID,0,VALID,102.795,VALID,0,VALID,24.3956,VALID,93,VALID,0.560156,
2010-10-04, 02:44:04,VALID,1006.12,VALID,0,VALID,102.818,VALID,0,VALID,24.3956,VALID,94,VALID,0.0839844,
2010-10-04, 02:45:04,VALID,1006.13,VALID,0,VALID,102.826,VALID,0,VALID,24.3956,VALID,94,VALID,0,
2010-10-04, 02:46:04,VALID,1006.11,VALID,0,VALID,102.841,VALID,0,VALID,24.3742,VALID,94,VALID,0.245703,
2010-10-04, 02:47:04,VALID,1006.1,VALID,0,VALID,102.833,VALID,0,VALID,24.3956,VALID,94,VALID,0.426562,
2010-10-04, 02:48:04,VALID,1006.13,VALID,0,VALID,102.841,VALID,0,VALID,24.3937,VALID,94,VALID,0,
2010-10-04, 02:49:04,VALID,1006.14,VALID,0,VALID,102.856,VALID,0,VALID,24.3956,VALID,94,VALID,0,
2010-10-04, 02:50:04,VALID,1006.16,VALID,0,VALID,102.856,VALID,0,VALID,24.3956,VALID,94,VALID,0,
2010-10-04, 02:51:04,VALID,1006.21,VALID,0,VALID,102.849,VALID,0,VALID,24.3937,VALID,94,VALID,0,
2010-10-04, 02:52:04,VALID,1006.22,VALID,0,VALID,102.856,VALID,0,VALID,24.415,VALID,102,VALID,0,
2010-10-04, 02:53:04,VALID,1006.24,VALID,0,VALID,102.871,VALID,0,VALID,24.415,VALID,105,VALID,0,
2010-10-04, 02:54:04,VALID,1006.25,VALID,0,VALID,102.864,VALID,0,VALID,24.3937,VALID,102,VALID,0,
2010-10-04, 02:55:04,VALID,1006.24,VALID,0,VALID,102.856,VALID,0,VALID,24.4132,VALID,102,VALID,0,
2010-10-04, 02:56:04,VALID,1006.23,VALID,0,VALID,102.871,VALID,0,VALID,24.4345,VALID,97,VALID,0,
2010-10-04, 02:57:04,VALID,1006.22,VALID,0,VALID,102.894,VALID,0,VALID,24.4345,VALID,107,VALID,0,
2010-10-04, 02:58:04,VALID,1006.2,VALID,0,VALID,102.887,VALID,0,VALID,24.415,VALID,107,VALID,0,
2010-10-04, 02:59:04,VALID,1006.14,VALID,0,VALID,102.91,VALID,0,VALID,24.4345,VALID,107,VALID,0,
2010-10-04, 03:00:04,VALID,1006.14,VALID,0,VALID,102.925,VALID,0,VALID,24.415,VALID,107,VALID,0,
2010-10-04, 03:01:04,VALID,1006.12,VALID,0,VALID,102.932,VALID,0,VALID,24.4132,VALID,107,VALID,0,
2010-10-04, 03:02:04,VALID,1006.13,VALID,0,VALID,102.963,VALID,0,VALID,24.415,VALID,107,VALID,0,
2010-10-04, 03:03:04,VALID,1006.14,VALID,0,VALID,102.963,VALID,0,VALID,24.3956,VALID,107,VALID,0,
2010-10-04, 03:04:04,VALID,1006.15,VALID,0,VALID,102.978,VALID,0,VALID,24.415,VALID,107,VALID,0,
2010-10-04, 03:05:04,VALID,1006.15,VALID,0,VALID,102.978,VALID,0,VALID,24.415,VALID,107,VALID,0,
2010-10-04, 03:06:04,VALID,1006.14,VALID,0,VALID,102.978,VALID,0,VALID,24.415,VALID,107,VALID,0,
2010-10-04, 03:07:04,VALID,1006.16,VALID,0,VALID,103.001,VALID,0,VALID,24.3956,VALID,107,VALID,0,
2010-10-04, 03:08:04,VALID,1006.13,VALID,0,VALID,103.032,VALID,0,VALID,24.3956,VALID,107,VALID,0,
2010-10-04, 03:09:04,VALID,1006.16,VALID,0,VALID,103.047,VALID,0,VALID,24.3761,VALID,107,VALID,0,
2010-10-04, 03:10:04,VALID,1006.13,VALID,0,VALID,103.039,VALID,0,VALID,24.3761,VALID,107,VALID,0,
2010-10-04, 03:11:04,VALID,1006.15,VALID,0,VALID,103.047,VALID,0,VALID,24.3761,VALID,107,VALID,0,
2010-10-04, 03:12:04,VALID,1006.13,VALID,0,VALID,103.062,VALID,0,VALID,24.3566,VALID,107,VALID,0,
2010-10-04, 03:13:04,VALID,1006.11,VALID,0,VALID,103.085,VALID,0,VALID,24.3566,VALID,107,VALID,0,
2010-10-04, 03:14:04,VALID,1006.11,VALID,0,VALID,103.07,VALID,0,VALID,24.3566,VALID,107,VALID,0,
2010-10-04, 03:15:04,VALID,1006.08,VALID,0,VALID,103.085,VALID,0,VALID,24.3371,VALID,107,VALID,0,
2010-10-04, 03:16:04,VALID,1006.09,VALID,0,VALID,103.108,VALID,0,VALID,24.3371,VALID,107,VALID,0,
2010-10-04, 03:17:04,VALID,1006.09,VALID,0,VALID,103.123,VALID,0,VALID,24.3371,VALID,107,VALID,0,
2010-10-04, 03:18:04,VALID,1006.07,VALID,0,VALID,103.138,VALID,0,VALID,24.3176,VALID,107,VALID,0,
2010-10-04, 03:19:04,VALID,1006.09,VALID,0,VALID,103.146,VALID,0,VALID,24.2981,VALID,107,VALID,0,
2010-10-04, 03:20:04,VALID,1006.04,VALID,0,VALID,103.184,VALID,0,VALID,24.2786,VALID,107,VALID,0,
2010-10-04, 03:21:04,VALID,1006.06,VALID,0,VALID,103.192,VALID,0,VALID,24.2805,VALID,107,VALID,0,
2010-10-04, 03:22:04,VALID,1006.03,VALID,0,VALID,103.199,VALID,0,VALID,24.2591,VALID,107,VALID,0,
2010-10-04, 03:23:04,VALID,1006.03,VALID,0,VALID,103.184,VALID,0,VALID,24.2396,VALID,107,VALID,0,
2010-10-04, 03:24:04,VALID,1006.01,VALID,0,VALID,103.192,VALID,0,VALID,24.2396,VALID,107,VALID,0,
2010-10-04, 03:25:04,VALID,1005.96,VALID,0,VALID,103.184,VALID,0,VALID,24.2396,VALID,107,VALID,0,
2010-10-04, 03:26:04,VALID,1005.96,VALID,0,VALID,103.199,VALID,0,VALID,24.2396,VALID,107,VALID,0,
2010-10-04, 03:27:04,VALID,1005.95,VALID,0,VALID,103.199,VALID,0,VALID,24.2396,VALID,107,VALID,0,
2010-10-04, 03:28:04,VALID,1005.98,VALID,0,VALID,103.215,VALID,0,VALID,24.2396,VALID,107,VALID,0,
2010-10-04, 03:29:04,VALID,1005.98,VALID,0,VALID,103.199,VALID,0,VALID,24.2396,VALID,107,VALID,0,
2010-10-04, 03:30:04,VALID,1006,VALID,0,VALID,103.222,VALID,0,VALID,24.2396,VALID,107,VALID,0,
2010-10-04, 03:31:04,VALID,1006.06,VALID,0,VALID,103.215,VALID,0,VALID,24.2202,VALID,86,VALID,0,
2010-10-04, 03:32:04,VALID,1006.06,VALID,0,VALID,103.237,VALID,0,VALID,24.2396,VALID,86,VALID,0,
2010-10-04, 03:33:04,VALID,1006.08,VALID,0,VALID,103.215,VALID,0,VALID,24.2202,VALID,86,VALID,0,
2010-10-04, 03:34:04,VALID,1006.1,VALID,0,VALID,103.23,VALID,0,VALID,24.2202,VALID,86,VALID,0,
2010-10-04, 03:35:04,VALID,1006.13,VALID,0,VALID,103.192,VALID,0,VALID,24.2202,VALID,86,VALID,0,
2010-10-04, 03:36:04,VALID,1006.13,VALID,0,VALID,103.199,VALID,0,VALID,24.2202,VALID,86,VALID,0,
2010-10-04, 03:37:04,VALID,1006.19,VALID,0,VALID,103.222,VALID,0,VALID,24.2202,VALID,86,VALID,0,
2010-10-04, 03:38:04,VALID,1006.22,VALID,0,VALID,103.199,VALID,0,VALID,24.1793,VALID,87,VALID,0,
2010-10-04, 03:39:04,VALID,1006.26,VALID,0,VALID,103.215,VALID,0,VALID,24.1793,VALID,96,VALID,0.119141,
2010-10-04, 03:40:04,VALID,1006.31,VALID,0,VALID,103.222,VALID,0,VALID,24.2007,VALID,105,VALID,0.694531,
2010-10-04, 03:41:04,VALID,1006.38,VALID,0,VALID,103.222,VALID,0,VALID,24.2007,VALID,150,VALID,0.776563,
2010-10-04, 03:42:04,VALID,1006.39,VALID,0,VALID,103.222,VALID,0,VALID,24.2007,VALID,152,VALID,0.666016,
2010-10-04, 03:43:04,VALID,1006.41,VALID,0,VALID,103.26,VALID,0,VALID,24.1617,VALID,162,VALID,0.928125,
2010-10-04, 03:44:04,VALID,1006.44,VALID,0,VALID,103.268,VALID,0,VALID,24.1422,VALID,164,VALID,0.433203,
2010-10-04, 03:45:04,VALID,1006.44,VALID,0,VALID,103.268,VALID,0,VALID,24.1422,VALID,138,VALID,0.591406,
2010-10-04, 03:46:04,VALID,1006.48,VALID,0,VALID,103.26,VALID,0,VALID,24.1422,VALID,139,VALID,0.949609,
2010-10-04, 03:47:04,VALID,1006.49,VALID,0,VALID,103.276,VALID,0,VALID,24.1014,VALID,152,VALID,1.02969,
2010-10-04, 03:48:04,VALID,1006.48,VALID,0,VALID,103.26,VALID,0,VALID,24.1227,VALID,140,VALID,0.969922,
2010-10-04, 03:49:04,VALID,1006.45,VALID,0,VALID,103.276,VALID,0,VALID,24.1227,VALID,131,VALID,0.638281,
2010-10-04, 03:50:04,VALID,1006.47,VALID,0,VALID,103.268,VALID,0,VALID,24.1032,VALID,114,VALID,0.790625,
2010-10-04, 03:51:04,VALID,1006.41,VALID,0,VALID,103.276,VALID,0,VALID,24.1032,VALID,133,VALID,0.859766,
2010-10-04, 03:52:04,VALID,1006.41,VALID,0,VALID,103.283,VALID,0,VALID,24.1051,VALID,111,VALID,1.02383,
2010-10-04, 03:53:04,VALID,1006.41,VALID,0,VALID,103.306,VALID,0,VALID,24.0837,VALID,105,VALID,0.707031,
2010-10-04, 03:54:04,VALID,1006.39,VALID,0,VALID,103.306,VALID,0,VALID,24.0837,VALID,94,VALID,1.09727,
2010-10-04, 03:55:04,VALID,1006.39,VALID,0,VALID,103.298,VALID,0,VALID,24.0837,VALID,107,VALID,0.525781,